TRA736 LPPT-LFRS

Flight info

Callsign TRA736
Flight time N/A
Altitude 32000
Route IXIDA DCT TOSDI DCT ZMR DCT NUBLO DCT RONSI DCT DELOG DCT YURZI UL14 TEPRA DCT EPIXO
Aircraft B738/M-SDE2E3FGHIRWXY/LB1

Departure

Time 2026-05-04 18:09
Airport Lisbon Humberto Delgado Airport (LPPT)

Arrival

Time N/A
Airport Nantes Atlantique Airport (LFRS)
Time Latitude Longitude Altitude Speed Heading
2026-05-04 17:46 38.76471 -9.13685 354 ft 0 kts 168°
2026-05-04 18:02 38.76510 -9.13695 353 ft 4 kts 175°
2026-05-04 18:02 38.76535 -9.13692 357 ft 4 kts 210°
2026-05-04 18:02 38.76550 -9.13670 350 ft 2 kts 257°
2026-05-04 18:02 38.76551 -9.13668 349 ft 1 kts 258°
2026-05-04 18:05 38.76540 -9.13732 347 ft 16 kts 259°
2026-05-04 18:06 38.76569 -9.13991 350 ft 15 kts 267°
2026-05-04 18:06 38.76556 -9.14121 345 ft 15 kts 286°
2026-05-04 18:06 38.76593 -9.14239 335 ft 13 kts 294°
2026-05-04 18:07 38.76602 -9.14266 337 ft 1 kts 293°
2026-05-04 18:07 38.76603 -9.14269 337 ft 0 kts 293°
2026-05-04 18:07 38.76605 -9.14274 333 ft 2 kts 293°
2026-05-04 18:07 38.76630 -9.14348 332 ft 17 kts 294°
2026-05-04 18:08 38.76698 -9.14360 336 ft 8 kts 24°
2026-05-04 18:08 38.76716 -9.14350 336 ft 11 kts 23°
2026-05-04 18:08 38.76991 -9.14203 354 ft 78 kts 22°
2026-05-04 18:08 38.77693 -9.13828 366 ft 139 kts 23°
2026-05-04 18:09 38.79850 -9.12636 1283 ft 182 kts 21°
2026-05-04 18:09 38.82004 -9.11251 3060 ft 183 kts 24°
2026-05-04 18:10 38.83207 -9.10395 3299 ft 211 kts 24°
2026-05-04 18:10 38.84543 -9.09402 3568 ft 230 kts 26°
2026-05-04 18:10 38.85988 -9.08297 3867 ft 251 kts 26°
2026-05-04 18:10 38.87517 -9.07119 4545 ft 260 kts 27°
2026-05-04 18:11 38.89075 -9.05916 5388 ft 264 kts 28°
2026-05-04 18:11 38.90597 -9.04532 6162 ft 273 kts 37°
2026-05-04 18:11 38.92026 -9.02892 6947 ft 277 kts 40°
2026-05-04 18:11 38.93425 -9.01211 7698 ft 282 kts 39°
2026-05-04 18:12 38.94872 -8.99470 8455 ft 287 kts 39°
2026-05-04 18:12 38.96342 -8.97714 9294 ft 289 kts 39°
2026-05-04 18:12 38.97830 -8.95949 10084 ft 294 kts 38°
2026-05-04 18:12 38.99366 -8.94141 10541 ft 310 kts 39°
2026-05-04 18:13 39.01023 -8.92200 10707 ft 334 kts 39°
2026-05-04 18:13 39.02802 -8.90120 10917 ft 356 kts 39°
2026-05-04 18:13 39.06537 -8.85738 12050 ft 371 kts 39°
2026-05-04 18:14 39.08455 -8.83486 12749 ft 375 kts 39°
2026-05-04 18:14 39.10396 -8.81205 13431 ft 380 kts 38°
2026-05-04 18:14 39.12363 -8.78896 14061 ft 385 kts 38°
2026-05-04 18:15 39.16374 -8.74186 15249 ft 394 kts 38°
2026-05-04 18:15 39.20228 -8.69002 16434 ft 407 kts 45°
2026-05-04 18:15 39.22083 -8.66216 17000 ft 412 kts 46°
2026-05-04 18:16 39.23952 -8.63382 17563 ft 417 kts 45°
2026-05-04 18:16 39.25819 -8.60567 18131 ft 421 kts 45°
2026-05-04 18:16 39.27742 -8.57694 18677 ft 425 kts 45°